Weather Roundup
Issued by NWS Springfield, MO

Home | Current Version | Previous Version | Text Only | Print | Product List | Glossary On
Versions: 1 2 3 4 5 6 7 8 9 10 11 12 13 14 15 16 17 18 19 20 21 22 23 24 25 26 27 28 29 30 31 32 33 34 35 36 37 38 39 40 41 42 43 44 45 46 47 48 49 50
000
NZUS99 KSGF 270507
HRRSGF

HOURLY WEATHER
NATIONAL WEATHER SERVICE SPRINGFIELD MO
1200 AM CDT MON APR 27 2015

......SGF CWA......

CITY           SKY/WX    TMP DP  RH WIND       PRES   REMARKS
SPRINGFIELD    CLOUDY    52  38  58 E13       29.95S
JOPLIN         CLOUDY    51  45  79 NE7       29.94R
WEST PLAINS    MOCLDY    50  37  61 NE7       29.97S
ROLLA          PTCLDY    48  36  63 NE10      30.00R
OSAGE BEACH    PTCLDY    50  34  53 E8        30.01R
BRANSON        CLOUDY    48  46  93 CALM      29.95R

......SURROUNDING SGF CWA......

CITY           SKY/WX    TMP DP  RH WIND       PRES   REMARKS
CHANUTE        CLOUDY    52  43  71 NE10      29.95S
PARSONS        CLOUDY    52  47  83 NE5       29.95S
COFFEYVILLE    CLOUDY    51  46  83 NE6       29.92S
EMPORIA        MOCLDY    50  40  68 NE7       30.00R
GROVE OK       CLOUDY    54  46  76 NE6       29.91R
ROGERS AR      CLOUDY    53  46  77 E12       29.91R
SILOAM SPRINGS CLOUDY   N/A N/A N/A E8        29.90R
HARRISON AR    CLOUDY    49  47  93 SE3       29.94R
NEAR YELLVILLE CLOUDY    48  46  93 NE5       29.93R

......KANSAS AND MISSOURI......

CITY           SKY/WX    TMP DP  RH WIND       PRES   REMARKS
KANSAS CTY INT PTCLDY    49  38  65 NE8       30.03S
DOWNTOWN KC    PTCLDY    52  37  56 NE9       30.02S
COLUMBIA       CLEAR     47  37  68 NE9       30.03S
SEDALIA        CLEAR     51  35  54 NE9       30.04R
ST JOSEPH      PTCLDY    52  32  46 NE14      30.06S
ST LOUIS       PTCLDY    51  35  54 NE5       30.04S
SPIRIT OF STL  CLEAR     44  39  82 CALM      30.04R
KIRKSVILLE     CLEAR     45  35  68 NE6       30.08R
WICHITA        CLOUDY    53  45  74 NE9       29.95S
TOPEKA         MOCLDY    50  39  66 E3        30.02R
OLATHE         PTCLDY    51  36  56 E7        30.01R

......TENNESSEE......

CITY           SKY/WX    TMP DP  RH WIND       PRES   REMARKS
MEMPHIS        MOCLDY    56  47  71 NE8       29.89F
NASHVILLE      CLEAR     50  47  89 CALM      29.90F

......ARKANSAS.......

CITY           SKY/WX    TMP DP  RH WIND       PRES   REMARKS
FAYETTEVILLE   CLOUDY    53  47  79 NE7G16    29.89R
FT SMITH       CLOUDY    59  49  69 E15G30    29.85R
LITTLE ROCK    CLOUDY    57  48  72 NE7       29.89S

......OKLAHOMA.......

CITY           SKY/WX    TMP DP  RH WIND       PRES   REMARKS
TULSA          CLOUDY    56  47  71 NE10      29.86R
PONCA CITY     LGT RAIN  53  48  83 NE16G23   29.89R
MCALESTER      TSTM      64  61  90 NW13      29.84R VSB 3/4
OKLAHOMA CITY  CLOUDY    56  54  93 N20G25    29.81F

......IOWA............

CITY           SKY/WX    TMP DP  RH WIND       PRES   REMARKS
DES MOINES     CLEAR     48  28  46 CALM      30.10R
QUAD CITIES    CLEAR     40  35  83 CALM      30.06R

......ILLINOIS........

CITY           SKY/WX    TMP DP  RH WIND       PRES   REMARKS
QUINCY         CLEAR     45  36  70 NE3       30.06S
CHICAGO        CLEAR     42  29  59 N9        30.05R



USA.gov is the U.S. government's official web portal to all federal, state and local government web resources and services.